Wind_Speed
50 51 52 52 52 53 54 54 53 51 51 51 52 53 53 53 53 52 52 51 51 51 51 51 51 51 51 50 50 49 49 48 47 46 46 45 45 46 46 46 46 46 46
48 49 50 51 51 52 52 54 54 53 52 51 50 50 51 52 52 52 52 52 52 52 52 52 52 51 51 51 51 50 50 49 49 48 47 46 45 45 46 47 47 47 47
48 48 49 50 50 51 52 52 52 53 53 51 50 50 49 50 51 51 51 52 53 53 52 52 53 52 52 52 52 51 51 51 50 50 49 48 47 47 48 47 47 47 48
47 48 48 48 48 49 50 51 51 51 51 51 49 49 48 48 49 50 51 51 52 53 53 53 54 53 53 53 53 52 52 51 51 51 50 50 49 49 49 48 48 48 48
46 46 46 47 48 48 48 49 50 50 51 51 50 49 48 48 48 49 50 51 52 53 53 53 53 53 54 54 53 52 51 51 50 51 51 51 51 50 50 49 49 49 49
43 44 44 45 46 47 47 47 47 47 48 48 49 49 48 47 47 48 50 50 51 51 51 52 52 53 53 52 52 52 51 50 50 51 51 51 51 51 50 50 49 49 49
40 41 42 42 44 45 45 45 46 45 46 46 47 48 48 48 47 48 48 48 48 48 48 49 50 51 51 50 50 51 51 50 51 50 50 50 50 50 50 50 49 48 47
39 40 41 41 42 43 44 45 45 45 46 46 46 47 47 48 48 48 48 47 47 47 48 48 49 49 50 50 49 50 50 50 50 50 49 49 50 50 50 49 48 47 47
40 40 41 41 42 42 43 43 44 44 45 45 45 46 46 46 47 48 48 47 47 47 47 48 48 48 48 49 49 49 49 49 49 49 49 49 49 49 49 48 48 47 47
39 40 40 40 41 42 42 42 42 42 42 43 44 44 44 44 45 46 47 47 47 47 47 47 47 48 49 49 49 48 48 48 48 48 48 48 48 47 47 47 47 47 47
37 38 38 39 39 39 40 40 41 41 41 41 42 43 43 43 43 44 45 45 45 46 46 46 46 47 47 47 47 47 47 47 47 47 47 46 47 46 46 46 46 46 47
35 35 36 36 37 38 37 38 39 39 39 39 40 40 41 41 41 42 42 43 43 43 44 44 45 45 45 45 45 45 45 45 45 45 45 45 44 45 45 46 46 46 47
32 33 33 34 34 35 35 35 36 37 38 38 38 38 39 40 40 40 41 41 42 42 42 42 43 43 44 44 44 44 44 44 44 43 43 44 44 45 46 46 46 47 46
31 31 31 32 33 33 34 34 35 36 36 37 37 36 37 38 38 39 39 40 41 41 42 42 42 42 43 43 43 43 43 43 43 43 42 44 44 45 45 45 45 46 46
31 31 31 31 31 31 32 33 33 34 34 35 35 36 35 36 37 38 38 39 39 40 40 41 41 42 42 41 41 42 42 42 42 42 42 42 42 43 43 43 43 44 44
31 31 31 31 31 31 31 31 31 32 33 33 34 34 34 35 36 37 37 38 38 38 39 39 39 39 40 40 40 40 41 41 41 41 41 41 41 41 41 41 41 42 42
29 29 29 29 30 30 30 31 31 31 32 32 32 32 33 33 34 35 36 36 36 36 36 37 37 37 38 38 39 38 39 39 40 40 40 40 40 40 40 40 40 40 40
27 27 27 27 28 29 29 30 30 30 31 31 32 32 32 32 33 33 34 35 35 35 35 35 35 36 36 36 36 36 36 37 38 39 38 38 38 39 39 39 38 38 37
26 25 25 25 25 25 26 27 28 29 30 31 31 31 31 32 32 33 33 34 33 33 33 34 34 35 35 35 34 34 34 35 35 36 36 36 37 37 36 36 36 35 36
25 25 24 24 24 24 25 26 26 27 29 29 30 31 31 31 31 32 32 32 32 32 33 33 33 33 33 34 34 33 34 34 34 34 34 34 35 35 35 34 34 34 34
24 24 23 24 24 25 25 26 26 26 27 28 28 29 30 31 31 31 31 31 31 31 32 32 32 31 32 32 32 33 33 33 32 33 33 33 33 33 33 33 33 33 33
23 23 23 23 23 24 25 25 26 27 27 27 27 27 28 30 31 31 31 31 31 30 31 31 31 31 31 31 32 32 32 32 32 32 32 32 32 32 32 32 32 32 32
22 22 22 22 22 23 23 24 24 26 26 26 27 27 27 28 29 30 31 31 31 30 30 31 30 30 30 31 31 31 31 31 32 32 32 32 32 32 31 31 31 31 31
22 21 21 20 21 21 22 22 23 25 26 26 26 26 26 27 27 28 29 30 31 31 31 30 30 30 30 30 31 31 31 31 31 31 31 32 32 31 31 31 31 31 31
21 20 20 19 19 19 20 20 21 22 23 24 25 25 26 26 27 28 29 29 30 30 30 30 30 30 30 30 30 30 30 30 30 30 30 31 31 31 31 31 31 31 31
20 19 19 18 18 18 19 19 20 20 21 22 23 23 24 25 26 27 28 28 29 30 30 30 30 30 30 30 30 30 30 30 30 30 30 30 30 30 30 30 30 30 30
Wind_Direction
258 257 256 255 255 255 255 255 255 255 253 252 252 250 250 250 249 249 249 250 248 248 248 248 248 248 249 249 250 250 251 252 254 254 256 258 260 260 261 262 263 264 264
259 258 257 256 256 256 256 255 255 253 252 251 251 250 250 249 249 248 248 248 248 248 248 249 249 248 249 249 250 250 251 252 254 255 257 258 259 261 262 264 264 265 265
261 259 258 257 257 256 255 255 254 253 252 252 251 251 251 249 247 247 247 248 249 248 248 248 248 248 249 249 250 250 251 253 254 255 257 258 259 261 263 264 265 265 265
263 260 258 258 257 255 255 255 254 253 253 252 252 251 251 250 249 249 248 248 248 248 248 247 248 248 249 249 250 251 252 253 254 255 257 258 259 261 263 264 264 265 265
264 261 259 258 257 256 255 255 254 253 253 252 252 252 251 251 250 250 249 249 249 249 248 247 248 248 249 249 250 250 252 253 254 256 257 258 259 261 262 263 264 264 265
265 263 261 260 258 257 256 255 255 253 253 252 252 251 250 250 251 252 250 250 250 250 249 248 248 248 249 250 250 250 251 252 254 256 257 258 259 260 261 263 263 264 264
266 264 263 262 260 258 257 256 255 254 253 252 252 251 250 250 251 251 251 250 250 250 248 247 248 248 248 249 250 250 251 252 254 256 257 258 259 260 261 262 262 263 263
268 265 263 262 262 261 259 257 256 254 253 253 253 251 251 250 251 250 250 250 250 249 248 248 248 248 248 248 250 251 252 253 255 256 256 258 260 261 261 261 261 262 263
269 267 265 264 263 262 260 258 257 255 253 253 252 251 251 250 250 249 249 248 248 248 249 249 248 248 248 249 250 251 252 253 255 256 257 258 259 260 260 260 261 262 264
270 268 266 265 264 262 260 258 257 255 254 253 252 251 250 250 249 248 248 248 248 248 249 249 249 249 249 249 250 251 252 253 254 256 257 258 258 259 260 261 262 263 264
272 270 268 266 264 263 260 257 256 254 253 252 252 251 250 250 249 248 247 247 248 248 248 248 249 250 250 250 251 252 253 253 254 255 256 257 258 259 260 261 262 263 265
273 270 268 266 264 263 260 257 255 253 252 252 251 250 250 249 248 247 246 246 246 247 248 248 249 249 249 249 251 252 252 253 254 255 256 257 259 260 260 261 262 264 265
273 271 269 267 264 262 259 256 253 252 250 249 250 249 248 248 247 246 245 245 245 245 246 246 247 248 247 248 249 250 251 251 253 254 255 257 259 260 261 262 263 264 265
274 271 270 267 265 261 258 255 253 251 249 248 247 247 246 246 245 245 244 245 245 245 245 245 246 247 247 248 250 251 250 251 252 254 256 257 259 260 262 263 264 264 266
274 272 271 270 266 261 258 254 252 250 249 248 246 246 246 245 244 244 244 244 244 244 244 245 246 247 248 249 250 251 251 251 253 254 255 257 258 259 260 262 262 264 265
274 271 270 267 265 262 258 254 251 249 248 247 245 245 245 245 244 244 243 243 243 244 245 245 245 246 248 248 249 250 251 251 252 254 255 256 257 259 261 262 263 264 265
278 273 269 265 263 260 256 251 248 248 247 246 245 245 245 244 243 242 242 242 243 245 246 245 245 247 248 248 249 250 251 251 252 253 254 256 257 259 261 262 263 263 264
280 275 270 266 262 259 254 251 249 248 246 245 246 246 245 244 243 242 242 242 244 245 246 246 246 247 248 248 248 249 251 252 253 253 254 255 257 259 260 261 262 262 263
282 277 272 267 263 260 255 251 249 248 246 245 245 244 243 243 242 242 243 243 244 245 246 246 247 248 248 247 247 248 250 252 253 254 255 256 258 260 261 261 261 262 263
283 279 274 268 264 260 256 253 251 249 246 244 243 242 240 241 241 241 242 243 243 244 245 246 248 247 246 247 247 249 250 251 252 254 255 257 258 259 260 260 261 262 263
283 278 274 270 266 262 259 255 252 249 245 244 243 242 240 240 240 241 241 242 243 245 246 246 247 247 247 248 249 251 252 252 253 254 255 256 257 258 259 260 261 262 263
285 279 275 271 266 263 260 255 252 249 246 246 244 242 240 240 240 241 242 242 242 244 246 247 247 247 247 248 249 250 251 252 253 253 254 255 256 257 258 260 261 263 263
286 281 276 271 266 263 259 255 252 249 247 246 245 242 241 241 242 242 241 241 242 244 247 249 249 249 250 251 250 250 251 251 252 252 253 255 257 258 258 260 262 263 264
287 282 278 272 267 263 259 255 252 249 246 245 243 242 242 243 242 241 241 241 242 245 247 247 248 248 249 250 250 251 251 251 252 253 254 255 256 258 259 261 262 263 264
286 282 278 273 269 264 259 255 252 248 245 243 242 241 242 243 243 243 242 242 243 245 246 247 247 246 247 248 248 249 250 251 254 255 256 256 257 257 259 260 262 263 264
285 281 277 273 268 263 259 255 251 247 245 244 243 242 242 242 242 243 243 244 244 245 245 245 246 245 245 246 246 247 249 252 254 256 256 257 258 259 260 261 261 262 264
Height
5575 5576 5578 5580 5582 5583 5586 5588 5590 5593 5595 5598 5601 5604 5607 5611 5615 5619 5623 5627 5631 5635 5639 5643 5647 5652 5656 5660 5664 5668 5672 5675 5679 5684 5686 5688 5690 5692 5694 5695 5697 5698 5700
5561 5562 5564 5566 5568 5570 5571 5573 5575 5578 5580 5583 5586 5590 5593 5597 5601 5605 5609 5613 5618 5622 5626 5630 5634 5638 5642 5647 5651 5655 5659 5662 5666 5670 5673 5676 5678 5680 5681 5683 5684 5686 5687
5547 5549 5550 5552 5554 5556 5558 5559 5561 5564 5566 5569 5572 5576 5579 5583 5587 5591 5595 5599 5603 5608 5612 5616 5620 5624 5629 5633 5637 5641 5645 5649 5653 5657 5660 5663 5665 5667 5668 5670 5672 5673 5675
5534 5535 5537 5538 5540 5542 5544 5546 5548 5551 5553 5556 5559 5563 5566 5570 5573 5577 5581 5585 5589 5593 5598 5602 5606 5611 5615 5619 5624 5628 5632 5636 5639 5643 5646 5650 5652 5654 5655 5658 5659 5660 5662
5521 5522 5524 5525 5527 5528 5530 5532 5535 5537 5540 5543 5546 5549 5553 5556 5560 5563 5567 5571 5575 5579 5583 5588 5592 5597 5601 5606 5610 5614 5618 5622 5625 5629 5633 5636 5638 5640 5643 5644 5646 5647 5648
5509 5510 5511 5512 5513 5515 5517 5519 5522 5524 5527 5530 5533 5536 5540 5543 5546 5549 5553 5557 5561 5565 5569 5574 5578 5583 5587 5592 5596 5600 5604 5608 5612 5615 5619 5622 5625 5627 5629 5630 5632 5634 5636
5497 5498 5498 5500 5501 5502 5504 5506 5509 5511 5514 5517 5520 5523 5527 5530 5533 5536 5540 5544 5548 5552 5556 5560 5564 5569 5573 5578 5582 5586 5590 5594 5598 5602 5605 5607 5610 5613 5615 5617 5618 5620 5622
5485 5486 5486 5487 5488 5490 5491 5493 5496 5498 5501 5505 5507 5511 5514 5517 5520 5523 5527 5531 5535 5539 5543 5547 5552 5556 5560 5564 5568 5573 5577 5581 5585 5588 5591 5594 5596 5598 5600 5603 5604 5606 5608
5474 5474 5474 5475 5476 5477 5479 5480 5483 5486 5489 5492 5495 5498 5501 5504 5507 5511 5514 5518 5522 5527 5531 5535 5539 5543 5548 5552 5556 5560 5564 5568 5571 5574 5577 5579 5582 5584 5586 5588 5590 5592 5594
5462 5462 5462 5463 5464 5465 5466 5468 5470 5473 5476 5479 5482 5485 5489 5492 5495 5498 5502 5506 5511 5515 5519 5523 5527 5531 5534 5538 5543 5547 5551 5554 5558 5561 5563 5566 5568 5570 5573 5575 5577 5579 5580
5450 5450 5450 5450 5451 5452 5454 5455 5458 5461 5464 5467 5470 5474 5477 5480 5483 5486 5490 5494 5498 5502 5506 5510 5514 5518 5522 5526 5530 5534 5538 5541 5544 5547 5550 5553 5555 5557 5559 5561 5563 5565 5567
5438 5438 5438 5438 5439 5440 5442 5444 5446 5449 5452 5455 5458 5461 5465 5468 5471 5474 5478 5482 5486 5490 5495 5498 5502 5506 5510 5513 5517 5521 5525 5528 5532 5535 5537 5540 5542 5544 5546 5548 5550 5552 5553
5427 5427 5427 5427 5428 5428 5430 5432 5434 5437 5440 5443 5446 5450 5453 5457 5460 5463 5467 5471 5474 5479 5483 5486 5490 5494 5497 5501 5505 5509 5512 5516 5519 5522 5525 5527 5529 5531 5533 5535 5536 5538 5539
5417 5417 5416 5417 5417 5418 5419 5421 5423 5426 5429 5432 5435 5439 5442 5445 5449 5452 5456 5460 5463 5467 5471 5475 5479 5482 5486 5490 5494 5497 5500 5504 5507 5510 5512 5514 5516 5518 5520 5521 5523 5525 5526
5407 5407 5406 5406 5407 5407 5408 5410 5413 5416 5418 5422 5425 5428 5431 5435 5438 5442 5445 5449 5453 5457 5460 5464 5468 5472 5475 5479 5482 5485 5488 5491 5494 5497 5499 5502 5503 5505 5507 5508 5510 5512 5513
5397 5396 5396 5396 5396 5397 5399 5400 5402 5406 5408 5411 5414 5418 5421 5424 5427 5431 5435 5439 5442 5446 5450 5453 5457 5461 5464 5467 5471 5474 5476 5479 5482 5484 5487 5489 5491 5493 5495 5496 5497 5499 5500
5387 5386 5386 5386 5386 5387 5389 5391 5394 5396 5399 5402 5405 5408 5411 5414 5418 5421 5425 5429 5432 5436 5439 5443 5447 5450 5453 5456 5459 5462 5465 5467 5470 5472 5475 5477 5479 5481 5482 5484 5485 5486 5488
5378 5377 5377 5377 5377 5378 5380 5382 5385 5387 5390 5393 5396 5399 5402 5405 5409 5412 5416 5419 5423 5426 5430 5433 5436 5439 5442 5445 5448 5451 5454 5456 5458 5461 5463 5465 5467 5469 5471 5472 5473 5474 5476
5370 5369 5368 5368 5369 5370 5371 5373 5376 5378 5381 5385 5388 5391 5393 5397 5400 5403 5407 5410 5414 5417 5420 5423 5426 5429 5432 5435 5438 5440 5443 5446 5448 5450 5452 5454 5456 5458 5459 5461 5462 5463 5465
5362 5361 5361 5361 5362 5363 5364 5366 5368 5370 5373 5376 5379 5382 5385 5388 5392 5395 5398 5402 5405 5408 5411 5414 5417 5420 5423 5425 5428 5431 5433 5436 5438 5440 5442 5444 5446 5447 5449 5450 5452 5453 5454
5355 5354 5353 5354 5354 5355 5357 5358 5360 5362 5365 5368 5371 5373 5376 5380 5384 5387 5390 5393 5397 5400 5403 5405 5408 5411 5413 5416 5419 5421 5424 5426 5428 5430 5432 5434 5436 5437 5439 5440 5442 5443 5444
5348 5347 5347 5347 5347 5348 5349 5351 5353 5355 5358 5360 5363 5366 5369 5372 5375 5379 5382 5385 5388 5391 5394 5397 5399 5402 5404 5407 5410 5412 5414 5416 5419 5421 5423 5424 5426 5428 5429 5431 5432 5433 5434
5341 5341 5340 5340 5340 5341 5342 5344 5345 5348 5350 5353 5355 5358 5361 5364 5367 5370 5374 5377 5380 5382 5385 5388 5391 5393 5395 5398 5400 5403 5405 5407 5409 5411 5413 5415 5417 5418 5420 5421 5422 5423 5424
5335 5334 5334 5334 5334 5334 5335 5337 5338 5340 5343 5345 5348 5351 5354 5356 5359 5362 5365 5368 5371 5374 5376 5379 5382 5384 5387 5389 5391 5394 5396 5398 5400 5402 5404 5406 5407 5409 5410 5412 5413 5414 5415
5329 5328 5327 5327 5327 5328 5329 5330 5332 5334 5336 5338 5341 5344 5346 5349 5352 5354 5357 5360 5363 5365 5368 5370 5373 5375 5378 5380 5382 5384 5387 5389 5391 5393 5394 5396 5398 5399 5401 5402 5403 5404 5405
5322 5321 5321 5321 5321 5322 5323 5324 5325 5327 5329 5332 5334 5336 5339 5341 5344 5346 5349 5352 5354 5357 5359 5362 5364 5366 5369 5371 5373 5376 5378 5380 5382 5383 5385 5387 5388 5390 5391 5392 5393 5394 5395